Regional Weather Roundup
Issued by NWS

Home | Current Version | Previous Version | Graphics & Text | Print | Product List | Glossary On
Versions: 1 2 3 4 5 6 7 8 9 10 11 12 13 14 15 16 17 18 19 20 21 22 23 24 25 26 27 28 29 30 31 32 33 34 35 36 37 38 39 40 41 42 43 44 45 46 47 48 49 50
000
ASUS43 KBIS 240820
RWRND

NORTH DAKOTA REGIONAL WEATHER ROUNDUP
NATIONAL WEATHER SERVICE BISMARCK ND
300 AM CDT THU JUL 24 2014

NOTE: "FAIR" INDICATES FEW OR NO CLOUDS BELOW 12,000 FEET WITH NO
SIGNIFICANT WEATHER AND/OR OBSTRUCTIONS TO VISIBILITY.


NDZ001>003-009>011-017-240900-
NORTHWEST NORTH DAKOTA

CITY           SKY/WX    TMP DP  RH WIND       PRES   REMARKS
WILLISTON      MOCLDY    72  57  59 SE13G25   29.92F
MINOT          PTCLDY    64  61  90 E9        30.04F
MINOT AFB      PTCLDY    63  63 100 E10       30.03F
$$

NDZ018>021-031>035-040>046-240900-
SOUTHWEST NORTH DAKOTA

CITY           SKY/WX    TMP DP  RH WIND       PRES   REMARKS
BISMARCK       CLEAR     65  57  75 E12       30.05F
DICKINSON      CLEAR     64  55  72 SE16G25   29.95F
GARRISON         N/A     66  60  81 SE10      30.03F
HETTINGER ARPT PTCLDY    67  55  65 SE16G26   29.96F
$$

NDZ004>008-012>016-024-026-027-054-240900-
NORTHEAST NORTH DAKOTA

CITY           SKY/WX    TMP DP  RH WIND       PRES   REMARKS
GRAND FORKS    MOCLDY    58  56  93 CALM      30.14S
GRND FRKS AFB  MOCLDY    59  59 100 S2        30.15F
DEVILS LAKE    PTCLDY    63  55  77 SE10      30.10F
$$

NDZ022-023-025-028>030-036>039-047>053-240900-
SOUTHEAST NORTH DAKOTA

CITY           SKY/WX    TMP DP  RH WIND       PRES   REMARKS
FARGO          PTCLDY    63  58  83 E8        30.13F
JAMESTOWN      PTCLDY    63  58  83 SE9       30.12F
$$




USA.gov is the U.S. government's official web portal to all federal, state and local government web resources and services.